AirNav   Everest Fuels
 
 772 users online  

MY72 Isle Private Airport
Isle, Minnesota, USA

GOING TO ISLE?


FAA INFORMATION EFFECTIVE 31 DECEMBER 2020

Location

FAA Identifier: MY72
Lat/Long: 46-09-34.8370N 093-27-40.8510W
46-09.580617N 093-27.680850W
46.1596769,-93.4613475
(estimated)
Elevation: 1271 ft. / 387 m (estimated)
Variation: 03E (1985)
From city: 2 miles NE of ISLE, MN
Time zone: UTC -6 (UTC -5 during Daylight Saving Time)
Zip code: 56342

Airport Operations

Airport use: Private use. Permission required prior to landing
Activation date: 07/1956
Control tower: no
ARTCC: MINNEAPOLIS CENTER
FSS: PRINCETON FLIGHT SERVICE STATION
Attendance: UNATNDD
Wind indicator: yes
Segmented circle: no

Airport Communications

CTAF: 122.9
WX AWOS-3 at JMR (18 nm SE): 123.925 (320-679-1629)

Nearby radio navigation aids

NDB name  Hdg/Dist  Freq  Var  ID
MORA334/18.032700WJMR .--- -- .-.
AITKIN159/24.939700EAIT .- .. -
MOOSE LAKE238/31.336202EMZH -- --.. ....
RUSH CITY321/35.028202EROS .-. --- ...
PRINCETON007/36.236803EPNM .--. -. --
RIPLEY080/37.040403EXCR -..- -.-. .-.
CAMBRIDGE346/37.135001ECBG -.-. -... --.
LITTLE FALLS068/38.735903ELXL .-.. -..- .-..

Airport Services

Parking: tiedowns
Airframe service: NONE
Powerplant service: NONE
Bottled oxygen: NONE
Bulk oxygen: NONE

Runway Information

Runway 16/34

Dimensions: 2460 x 160 ft. / 750 x 49 m
Surface: turf, in fair condition
RUNWAY 16  RUNWAY 34
Traffic pattern: leftleft
Markings: nonenone
Runway end identifier lights: nono
Obstructions: 50 ft. trees, 600 ft. from runway, 100 ft. right of centerline, 12:1 slope to clear65 ft. trees, 600 ft. from runway, 225 ft. left of centerline, 10:1 slope to clear

Airport Ownership and Management from official FAA records

Ownership: Publicly-owned
Owner: CITY OF ISLE MINNESOTA
P O BOX 427
ISLE, MN 56342
Phone 320-676-3641
Manager: ISLE FLYING CLUB INC.
32308 160TH ST
ISLE, MN 56342
Phone (320) 674-0065
ALSO: PATRICK MOENKHAUS 320-674-0065

Airport Operational Statistics

Aircraft based on the field: 4
Single engine airplanes: 4
    
Aircraft operations: avg 50/month *
83% local general aviation
17% transient general aviation
* for 12-month period ending 30 June 2016

Additional Remarks

FLYING CLUB MEMBERSHIP OR PERMISSION FROM A FLYING CLUB MEMBER IS REQUIRED TO LAND AT THE ISLE PRIVATE AIRPORT.
FOR CD CTC MINNEAPOLIS ARTCC AT 651-463-5588.

Instrument Procedures

There are no published instrument procedures at MY72.

Some nearby airports with instrument procedures:

KJMR - Mora Municipal Airport (18 nm SE)
04W - Field of Dreams Airport (25 nm E)
KAIT - Aitkin Municipal Airport-Steve Kurtz Field (25 nm N)
KHZX - Isedor Iverson Airport (28 nm N)
KMZH - Moose Lake Carlton County Airport (31 nm NE)
 
Loc | Ops | Rwys | IFR | FBO | Links
Com | Nav | Svcs | Stats | Notes
Area around MY72 (Isle Private Airport)
 
Road maps at: MapQuest Bing Google
 
Aerial photo
WARNING: Photo may not be current or correct
Aerial photo of MY72 (Isle Private Airport)
Photo by Dan Johnson
Photo taken 07-Nov-2018
looking northeast.

Do you have a better or more recent aerial photo of Isle Private Airport that you would like to share? If so, please send us your photo.

 
Sectional chart

 
Airport distance calculator
Flying to Isle Private Airport? Find the distance to fly.

From to MY72

Sunrise and sunset
Times for 20-Jan-2021
 Local
(UTC-6)
 Zulu
(UTC)
Morning civil twilight07:1713:17
Sunrise07:5013:50
Sunset17:0023:00
Evening civil twilight17:3323:33

Current date and time
Zulu (UTC)  20-Jan-2021 13:16:19
Local (UTC-6)  20-Jan-2021 07:16:19
 
METAR
KJMR 
18nm SE 
201255Z AUTO 17007KT 10SM CLR M14/M16 A2984 RMK AO2
KAIT 
24nm N 
201255Z AUTO 18010G16KT 10SM CLR M13/M16 A2972 RMK AO2
K04W 
25nm E 
201255Z AUTO 17010KT 10SM SCT120 M15/M17 A2984 RMK AO2
KHZX 
28nm N 
201255Z AUTO 17010KT 10SM CLR M13/M15 A2974 RMK AO2
KBRD 
31nm NW 
201253Z AUTO 18015G24KT 9SM CLR M12/M16 A2970 RMK AO2 SLP087 T11221156
KMZH 
31nm NE 
201255Z AUTO 20009G14KT 10SM SCT110 M15/M17 A2979 RMK AO2
KROS 
35nm SE 
201255Z AUTO 16011G15KT 10SM SCT120 M15/M17 A2987 RMK AO2 T11481175
KCBG 
36nm S 
201255Z AUTO 14011KT 10SM CLR M13/M18 A2985 RMK AO2
TAF
KBRD 
31nm NW 
201120Z 2012/2112 19013G20KT P6SM BKN100 WS020/24045KT FM201700 23014G21KT P6SM BKN100 WS020/28040KT FM202100 27017G27KT P6SM SKC WS020/29045KT FM210600 28013KT P6SM FEW080 WS020/30040KT FM210800 28012KT P6SM FEW050
NOTAMs
Click for the latest NOTAMs
NOTAMs are issued by the DoD/FAA and will open in a separate window not controlled by AirNav.

 

 
 

Would you like to see your business listed on this page?

 If your business provides an interesting product or service to pilots, flight crews, aircraft, or users of the Isle Private Airport, you should consider listing it here.  To start the listing process, click on the button below
 
Add a business
 

Other Pages about Isle Private Airport

Update a link
 
Copyright © AirNav, LLC. All rights reserved. Privacy Policy  Contact